Home > Weather > Buffalo > Past weeks

Flag for U.S.A. Weather for the Past 2 Weeks in Buffalo, New York, U.S.A.

Now
1 °F

Broken clouds.


Feels Like: -17 °F
Forecast: 1 / 10 °F
Wind: 14 mph from Northwest

Location: Greater Buffalo International Airport

Current Time: Feb 13, 2016 at 2:44:59 PM

Latest Report: Feb 13, 2016 at 1:54 PM


Visibility: 10 mi

Pressure: 30.37 "Hg

Humidity: 48%

Dew point: -14 °F

Location of BuffaloLocation

Historic Weather in Buffalo — Graph

°F

Buffalo Temperature Yesterday

Maximum temperature yesterday: 22 °F (at 1:54 PM)
Minimum temperature yesterday: 12 °F (at 7:54 AM)
Average temperature yesterday: 17 °F

High & Low Weather Summary for the Past Weeks

 TemperatureHumidityPressure
High61 °F (Feb 3, 2:54 PM)96% (Feb 9, 1:54 AM)30.38 "Hg (Feb 9, 1:54 AM)
Low-4 °F (Feb 13, 7:58 AM)43% (Feb 8, 12:54 PM)29.49 "Hg (Jan 31, 11:54 PM)
Average32 °F70%29.93 "Hg
* Reported Jan 29 1:54 PM — Feb 13 1:54 PM, Buffalo, Weather by CustomWeather, © 2016

Note: Actual official high and low records may vary slightly from our data, if they occured in-between our weather recording intervals... More about our weather records

Advertising

Buffalo Weather History for the Previous 24 Hours

 ConditionsComfort  
Time TempWeatherWind HumidityBarometerVisibility
1:54 PM
Sat, Feb 13
1 °FBroken clouds.14 mph48%30.37 "Hg10 mi
12:54 PM0 °FLight snow. Mostly cloudy.9 mph65%30.38 "Hg2 mi
11:54 AM-2 °FLight snow. Partly sunny.15 mph62%30.38 "Hg4 mi
10:54 AM-2 °FBroken clouds.16 mph56%30.37 "Hg8 mi
10:02 AM-3 °FLight snow. Overcast.13 mph65%30.30 "Hg1 mi
9:54 AM-3 °FLight snow. Partly sunny.16 mph65%30.36 "Hg1 mi
8:54 AM-4 °FPartly sunny.17 mph65%30.34 "Hg4 mi
7:58 AM-4 °FSnow. Ice fog.15 mphN/A30.27 "Hg1 mi
6:54 AM-1 °FLight snow. Ice fog.12 mph75%30.27 "Hg1 mi
6:01 AM-1 °FOvercast.17 mph71%30.18 "Hg4 mi
4:54 AM2 °FLight snow. Overcast.15 mph80%30.17 "Hg2 mi
3:54 AM5 °FLight snow. Overcast.16 mph72%30.13 "Hg3 mi
3:04 AM8 °FLight snow. Overcast.21 mph72%30.06 "Hg2 mi
2:54 AM8 °FLight snow. Passing clouds.15 mph69%30.09 "Hg4 mi
1:54 AM11 °FLight snow. Ice fog.18 mph81%30.05 "Hg1 mi
12:54 AM14 °FMostly cloudy.17 mph56%30.00 "Hg9 mi
11:54 PM
Fri, Feb 12
14 °FLight snow. Overcast.20 mph61%29.98 "Hg2 mi
10:54 PM17 °FHeavy snow. Ice fog.16 mph76%29.94 "Hg0 mi
10:02 PM17 °FLight snow. Ice fog.8 mph83%29.87 "Hg2 mi
8:54 PM18 °FOvercast.10 mph68%29.88 "Hg10 mi
7:54 PM18 °FPassing clouds.9 mph68%29.89 "Hg10 mi
6:54 PM20 °FPartly cloudy.10 mph68%29.89 "Hg10 mi
5:54 PM20 °FLight snow. Ice fog.13 mph85%29.88 "Hg5 mi
5:00 PM20 °FHeavy snow. Ice fog.22 mph85%29.85 "Hg0 mi
4:04 PM21 °FSnow. Mostly cloudy.22 mph74%29.84 "Hg1 mi
3:54 PM21 °FLight snow. Mostly cloudy.20 mph71%29.88 "Hg1 mi
2:54 PM22 °FMostly cloudy.25 mph66%29.88 "Hg8 mi
Weather by CustomWeather, © 2016

See weather overviewHow to use our weather pages